Location: Aulnoy
(48.8410°N, 3.0967°E)
Time: 00:06:11
(UTC+00:00)

Envisat - Pass Details

Date: 08 March 2024
Orbit: 762 x 764 km, 98.3° (Epoch: 12 April)

Event Time Altitude Azimuth Distance (km) Brightness Sun altitude
Rises 02:37:07 0° 20° (NNE) 3,241 7.0 -34.5°
Reaches altitude 10° 02:39:37 10° 29° (NNE) 2,310 6.2 -34.2°
Enters shadow 02:43:43 35° 81° (E) 1,218 4.3 -33.7°
